[[{"header":{"parameterUnit":"m.s-1","parameterCategory":1,"la1":30.2991,"la2":30.254,"lo1":-89.0895,"lo2":-89.0444,"dy":0.0017,"dx":0.0017,"nx":28,"ny":28,"refTime":"2024-06-07T09:00:00:Z","depth":0,"parameterNumber":2,"parameterNumberName":"U-component_of_WINDS"},"data":[0,0,0,0,0,0,0,0,0,0,0,0,0,0,0,0,0,0,0,0,0,0,0,0,0,0,0,0,0,0,0,0,0,0,0,0,0,0,0,0,0,0,0,0,0,0,0,0,0,0,0,0,0,0,0,0,0,0,0.8875,0.8876,0,0.899,0.8991,0.8992,0.9025,0.9024,0.9024,0.9023,0.9144,0.9147,0.9151,0,0,0,0,0,0,0,0,0,0,0,0,0,0.8684,0.8688,0.8874,0.8876,0.8877,0.899,0.8991,0.8993,0.9025,0.9024,0.9023,0.9023,0.9142,0.9147,0.9151,0,0,0,0,0,0,0,0,0,0,0,0,0,0.878,0.8689,0.8874,0.8907,0.8911,0.8989,0.8991,0.8993,0.9025,0.9024,0.9023,0.9022,0.9141,0.9146,0.9152,0.9207,0,0,0.917,0.9172,0,0,0,0,0,0,0,0,0.8775,0.8787,0.8901,0.8905,0.8909,0.8992,0.8968,0.9065,0.9025,0.8982,0.9023,0.9022,0.9094,0.9104,0.9127,0.9212,0.9218,0.917,0.9174,0.9176,0.9178,0,0,0,0,0,0,0,0.8768,0.8782,0.892,0.8902,0.8908,0.8916,0.8929,0.8987,0.9042,0.8986,0.8988,0.9001,0.9096,0.9122,0.9131,0.9219,0.917,0.9175,0.9179,0.9181,0.9355,0.9356,0,0,0,0,0,0,0.8755,0.8776,0.8917,0.8924,0.8838,0.8921,0.8935,0.8966,0.9042,0.9052,0.9002,0.9002,0.9113,0.9124,0.9135,0.9204,0.9176,0.9181,0.9185,0.9354,0.9356,0.9357,0,0,0,0,0,0,0.8751,0.8768,0.8912,0.8851,0.887,0.8925,0.896,0.8969,0.8995,0.9054,0.9064,0.9018,0.9112,0.9127,0.9189,0.9209,0.9184,0.9189,0.9353,0.9355,0.9356,0.9343,0,0,0,0,0,0,0.8746,0.8766,0.8787,0.8851,0.8873,0.8963,0.8962,0.8972,0.9004,0.9006,0.9071,0.9081,0.9113,0.918,0.9194,0.9216,0.9194,0.9351,0.9354,0.9356,0.9342,0.9344,0.9346,0,0,0,0,0,0.8739,0.8779,0.8788,0.8804,0.89,0.8964,0.8977,0.9011,0.9006,0.9028,0.9065,0.9079,0.9204,0.9186,0.9202,0.9226,0.935,0.9353,0.9355,0.9341,0.9344,0.9346,0,0,0,0,0,0,0.8717,0.8788,0.8799,0.8861,0.8906,0.8969,0.8998,0.9013,0.9061,0.9061,0.9102,0.9117,0.9175,0.9207,0.9186,0.9283,0.9277,0.9284,0.9261,0.9264,0.9266,0.9257,0.9198,0,0,0,0,0,0.8719,0.8764,0.8824,0.8873,0.8895,0.8943,0.8972,0.8994,0.9043,0.9063,0.9105,0.9153,0.9203,0.9235,0.9284,0.9346,0.9361,0.9371,0.9373,0.9374,0.9379,0.9415,0.942,0.9366,0.9366,0.9366,0,0,0.8725,0.8769,0.8795,0.887,0.8908,0.8954,0.8959,0.9008,0.9043,0.907,0.9131,0.9164,0.922,0.9282,0.9311,0.931,0.9397,0.9378,0.9378,0.9383,0.9418,0.9423,0.9428,0.9368,0.9367,0.9367,0,0,0.8759,0.8796,0.8841,0.8879,0.8935,0.8966,0.8977,0.9038,0.9061,0.9122,0.9143,0.9186,0.9271,0.931,0.9341,0.9388,0.9403,0.9403,0.9415,0.9449,0.9453,0.9457,0.9474,0.948,0.9408,0.9408,0.9408,0,0.8759,0.8829,0.8863,0.8911,0.8943,0.8969,0.9015,0.905,0.912,0.9142,0.9139,0.9246,0.9286,0.9358,0.9369,0.9393,0.9407,0.9397,0.9449,0.9454,0.9458,0.9475,0.9482,0.9408,0.9408,0.9408,0.9408,0,0.8826,0.8874,0.8904,0.897,0.9006,0.9052,0.9094,0.9126,0.9145,0.9177,0.9239,0.9287,0.9346,0.9365,0.9384,0.9439,0.9437,0.9441,0.9436,0.9462,0.9479,0.9486,0.9407,0.9407,0.9408,0.9408,0,0,0.8851,0.8934,0.8944,0.8974,0.9038,0.9077,0.9125,0.9182,0.9209,0.9256,0.9298,0.9368,0.9373,0.9408,0.9432,0.9461,0.9496,0.9462,0.9464,0.9468,0.9561,0.9558,0.9565,0.9506,0.9507,0.9509,0.9556,0,0.8893,0.8979,0.9011,0.9081,0.9127,0.9151,0.9193,0.9237,0.9268,0.9311,0.9345,0.9395,0.9396,0.9418,0.9448,0.9486,0.9516,0.9483,0.9546,0.9548,0.9532,0.9573,0.957,0.9613,0.9563,0.9564,0.9565,0,0.8954,0.9001,0.9076,0.9134,0.9154,0.9191,0.9246,0.9286,0.9337,0.9357,0.9395,0.9417,0.9469,0.946,0.9532,0.9509,0.9537,0.9559,0.9562,0.957,0.9559,0.9583,0.9628,0.9634,0.9576,0.9575,0.9574,0,0.8965,0.9047,0.9102,0.9127,0.9196,0.9221,0.9251,0.9301,0.9333,0.9381,0.9402,0.9456,0.9486,0.9527,0.9563,0.9553,0.9632,0.9626,0.9651,0.965,0.9668,0.9666,0.9718,0.9684,0.9684,0.9684,0.9684,0,0.9009,0.9054,0.9108,0.9142,0.9193,0.9229,0.9279,0.9311,0.9355,0.9396,0.9421,0.9459,0.9504,0.9548,0.9577,0.9633,0.9646,0.9664,0.9671,0.9663,0.966,0.9682,0.9681,0.9685,0.9685,0.9685,0.9684,0,0.9031,0.9068,0.913,0.919,0.9206,0.9241,0.9293,0.9327,0.9358,0.941,0.9424,0.9473,0.9527,0.9566,0.9636,0.9655,0.9715,0.9722,0.9698,0.9701,0.9725,0.9722,0.9793,0.9804,0.9762,0.9762,0.9762,0,0.9057,0.9092,0.9155,0.9184,0.9213,0.926,0.9292,0.9329,0.9362,0.9422,0.945,0.9504,0.955,0.9635,0.9677,0.9731,0.974,0.9761,0.9748,0.9738,0.9741,0.9739,0.9743,0.9763,0.9763,0.9763,0.9763,0,0.91,0.9116,0.9162,0.9214,0.9252,0.9295,0.9339,0.9361,0.9406,0.9442,0.9496,0.9532,0.9602,0.9657,0.9714,0.9746,0.9763,0.9767,0.9776,0.9768,0.9752,0.9762,0.9703,0.9765,0.9765,0.9765,0.9765,0.9765,0.9125,0.9157,0.9207,0.9257,0.9293,0.9333,0.9368,0.9403,0.9449,0.9508,0.9527,0.9584,0.9633,0.9712,0.9744,0.979,0.9789,0.9802,0.9805,0.9808,0.9808,0.9744,0.98,0.98,0.98,0.98,0.98,0,0.917,0.9202,0.9248,0.9307,0.9347,0.9357,0.9406,0.9439,0.9488,0.9532,0.9576,0.9639,0.9692,0.9738,0.9793,0.982,0.983,0.9834,0.9833,0.984,0.9805,0.9792,0.9825,0.9825,0.9825,0.9825,0.9825,0.9825,0.9198,0.9253,0.9275,0.9349,0.9382,0.9436,0.9463,0.9501,0.9536,0.9605,0.9648,0.9677,0.9723,0.9781,0.983,0.9843,0.9862,0.9865,0.9879,0.9845,0.9842,0.984,0.9828,0.9869,0.9869,0.9911,0.9911,0.9912]},{"header":{"parameterUnit":"m.s-1","parameterCategory":1,"la1":30.2991,"la2":30.254,"lo1":-89.0895,"lo2":-89.0444,"dy":0.0017,"dx":0.0017,"nx":28,"ny":28,"refTime":"2024-06-07T09:00:00:Z","depth":0,"parameterNumber":3,"parameterNumberName":"V-component_of_WINDS"},"data":[0,0,0,0,0,0,0,0,0,0,0,0,0,0,0,0,0,0,0,0,0,0,0,0,0,0,0,0,0,0,0,0,0,0,0,0,0,0,0,0,0,0,0,0,0,0,0,0,0,0,0,0,0,0,0,0,0,0,1.7683,1.7683,0,1.7722,1.7723,1.7723,1.7742,1.7742,1.7742,1.7742,1.7778,1.7779,1.778,0,0,0,0,0,0,0,0,0,0,0,0,0,1.7621,1.7622,1.7683,1.7683,1.7684,1.7722,1.7723,1.7723,1.7742,1.7742,1.7742,1.7742,1.7778,1.7779,1.778,0,0,0,0,0,0,0,0,0,0,0,0,0,1.7653,1.7622,1.7683,1.7698,1.77,1.7722,1.7723,1.7723,1.7742,1.7742,1.7742,1.7742,1.7778,1.7779,1.778,1.7789,0,0,1.7785,1.7785,0,0,0,0,0,0,0,0,1.7651,1.7655,1.7695,1.7697,1.7699,1.7727,1.7714,1.7745,1.7742,1.7726,1.7742,1.7742,1.7761,1.7764,1.7771,1.7791,1.7792,1.7785,1.7786,1.7786,1.7787,0,0,0,0,0,0,0,1.7649,1.7653,1.7698,1.7696,1.7698,1.7702,1.7706,1.772,1.7743,1.7727,1.7729,1.7734,1.7762,1.777,1.7772,1.7793,1.7785,1.7786,1.7787,1.7788,1.7822,1.7822,0,0,0,0,0,0,1.7644,1.7651,1.7697,1.7699,1.7675,1.7703,1.7708,1.7718,1.7743,1.7747,1.7733,1.7734,1.7767,1.777,1.7773,1.7786,1.7786,1.7788,1.7789,1.7822,1.7822,1.7822,0,0,0,0,0,0,1.7643,1.7648,1.7695,1.7676,1.7682,1.7704,1.7715,1.7719,1.7727,1.7747,1.7751,1.7737,1.7767,1.7771,1.7785,1.7787,1.7788,1.779,1.7822,1.7822,1.7822,1.781,0,0,0,0,0,0,1.7641,1.7648,1.7652,1.7676,1.7683,1.7708,1.7715,1.772,1.773,1.7731,1.7752,1.7755,1.7768,1.7783,1.7787,1.7789,1.7791,1.7822,1.7822,1.7822,1.781,1.7809,1.7809,0,0,0,0,0,1.7639,1.7646,1.7652,1.7657,1.7689,1.7708,1.7712,1.7727,1.773,1.7734,1.7747,1.7755,1.7786,1.7785,1.7789,1.7791,1.7822,1.7822,1.7822,1.781,1.7809,1.7809,0,0,0,0,0,0,1.762,1.7649,1.7656,1.7671,1.7687,1.7711,1.7716,1.7725,1.774,1.774,1.7757,1.7762,1.7774,1.7784,1.7782,1.7801,1.7805,1.7806,1.7794,1.7794,1.7793,1.779,1.7792,0,0,0,0,0,1.7617,1.7631,1.7656,1.7667,1.7675,1.7694,1.7703,1.7713,1.773,1.7736,1.775,1.7765,1.7778,1.7786,1.78,1.7812,1.7816,1.7815,1.7815,1.7814,1.7815,1.7822,1.7822,1.7822,1.7822,1.7822,0,0,1.7612,1.763,1.7638,1.7663,1.7677,1.769,1.7699,1.7713,1.7722,1.7737,1.7752,1.7763,1.7781,1.7794,1.78,1.7802,1.7816,1.7814,1.7814,1.7815,1.7822,1.7822,1.7822,1.7822,1.7822,1.7822,0,0,1.761,1.7625,1.7636,1.765,1.7671,1.7684,1.7687,1.771,1.7718,1.7734,1.7746,1.7757,1.7779,1.7791,1.78,1.7804,1.7811,1.7808,1.7804,1.7811,1.7811,1.7811,1.7813,1.7813,1.7808,1.7808,1.7808,0,1.7601,1.7623,1.764,1.7654,1.7665,1.7681,1.7692,1.7704,1.7727,1.7734,1.7736,1.7766,1.7778,1.7795,1.7796,1.7802,1.7806,1.7805,1.781,1.781,1.781,1.7812,1.7812,1.7807,1.7807,1.7808,1.7808,0,1.761,1.7625,1.7631,1.7656,1.7667,1.7679,1.7698,1.7707,1.7717,1.773,1.7745,1.7761,1.7778,1.7783,1.7792,1.7801,1.7802,1.7807,1.7811,1.7809,1.7811,1.7812,1.7807,1.7807,1.7807,1.7807,0,0,1.7596,1.7632,1.7633,1.7645,1.767,1.7681,1.7694,1.7712,1.772,1.7736,1.7746,1.7766,1.7771,1.7781,1.7791,1.7798,1.78,1.7802,1.7803,1.7801,1.7811,1.7807,1.7808,1.7805,1.7805,1.7806,1.781,0,1.7597,1.7623,1.7639,1.7657,1.7671,1.7687,1.7698,1.7714,1.7726,1.7739,1.7752,1.7766,1.7771,1.7778,1.7785,1.7798,1.7802,1.7798,1.7815,1.7815,1.781,1.7809,1.7804,1.7808,1.7811,1.7811,1.7811,0,1.7602,1.762,1.7639,1.7664,1.767,1.768,1.7699,1.7711,1.7729,1.7738,1.775,1.7761,1.7774,1.7777,1.7795,1.7792,1.78,1.7807,1.7808,1.781,1.7813,1.7811,1.7809,1.7809,1.7812,1.7812,1.7812,0,1.759,1.7618,1.7634,1.7644,1.7672,1.7679,1.7691,1.7709,1.772,1.7735,1.7742,1.7759,1.7768,1.778,1.7795,1.7795,1.7811,1.7815,1.7818,1.7818,1.7821,1.782,1.782,1.7826,1.7826,1.7825,1.7825,0,1.759,1.7601,1.763,1.7639,1.7653,1.7672,1.7684,1.7697,1.7713,1.7725,1.7739,1.775,1.7769,1.7781,1.7793,1.7806,1.781,1.7817,1.782,1.7816,1.7815,1.7821,1.7821,1.7826,1.7826,1.7826,1.7826,0,1.7579,1.7598,1.7616,1.7643,1.765,1.7658,1.768,1.769,1.7704,1.7718,1.7723,1.7744,1.7759,1.7776,1.7796,1.7804,1.7817,1.7821,1.7811,1.7813,1.7815,1.7815,1.7819,1.7821,1.7824,1.7824,1.7824,0,1.7577,1.7587,1.7615,1.7625,1.7637,1.7652,1.7664,1.7683,1.7693,1.7716,1.7722,1.774,1.7754,1.7778,1.7795,1.7811,1.7815,1.7816,1.7817,1.7813,1.7815,1.7815,1.7816,1.7815,1.7814,1.7814,1.7814,0,1.7573,1.7582,1.7599,1.7619,1.7632,1.7649,1.7665,1.7672,1.7694,1.7706,1.7723,1.7735,1.7757,1.7773,1.7792,1.7803,1.7812,1.7814,1.7815,1.7811,1.7805,1.7809,1.781,1.7813,1.7813,1.7814,1.7814,1.7814,1.7566,1.7576,1.7598,1.7616,1.7631,1.7647,1.7657,1.7673,1.7688,1.7709,1.7719,1.7736,1.7755,1.778,1.7791,1.7804,1.7807,1.7809,1.781,1.781,1.7809,1.7804,1.7808,1.7808,1.7808,1.7808,1.7808,0,1.7563,1.7578,1.7595,1.7619,1.7633,1.7642,1.7662,1.7672,1.7688,1.7705,1.772,1.774,1.7756,1.7775,1.7792,1.7799,1.7804,1.7803,1.7802,1.7805,1.7805,1.7803,1.7799,1.7799,1.7799,1.7799,1.7799,1.7799,1.7562,1.758,1.7592,1.7617,1.7631,1.765,1.766,1.7674,1.7688,1.7711,1.7725,1.7738,1.7755,1.7774,1.7789,1.7794,1.78,1.7798,1.7804,1.7804,1.7805,1.7805,1.7803,1.7799,1.7799,1.7802,1.7802,1.7802]}]]